Location: Peyton Hall Observatory
(40.3466°N, 74.6516°W)
Time: 15:58:40
(UTC-05:00)

ISS - All Passes

Search period start: 27 January 2015 00:00
Search period end: 06 February 2015 00:00
Orbit: 402 x 410 km, 51.6° (Epoch: 27 January)

Date Brightness Start Highest point End Pass type
(mag) Time Alt. Az. Time Alt. Az. Time Alt. Az.
27 Jan - 00:44:59 10° WNW 00:47:09 16° NNW 00:49:19 10° NNE night (unlit)
27 Jan - 02:23:19 10° NNW 02:24:43 12° N 02:26:07 10° NNE night (unlit)
27 Jan - 03:59:20 10° NNW 04:02:07 25° NNE 04:04:56 10° E visible
27 Jan - 05:35:35 10° WNW 05:38:48 48° SW 05:41:59 10° SSE visible
27 Jan - 22:15:05 10° SW 22:18:20 67° SE 22:21:37 10° ENE night (unlit)
27 Jan - 23:52:31 10° WNW 23:55:07 21° NNW 23:57:43 10° NNE night (unlit)
28 Jan - 01:31:17 10° NNW 01:32:35 12° N 01:33:53 10° NNE night (unlit)
28 Jan - 03:07:44 10° NNW 03:10:07 18° NNE 03:12:31 10° ENE night (unlit)
28 Jan - 04:43:43 10° NW 04:47:02 86° NNE 04:50:21 10° SE visible
28 Jan - 21:23:38 10° SSW 21:26:36 33° SE 21:29:37 10° ENE night (unlit)
28 Jan - 23:00:10 10° W 23:03:08 30° NNW 23:06:06 10° NE night (unlit)
29 Jan - 00:38:54 10° NW 00:40:27 13° N 00:41:59 10° NNE night (unlit)
29 Jan - 02:16:07 10° NNW 02:18:02 14° NNE 02:19:58 10° NE night (unlit)
29 Jan - 03:51:58 10° NW 03:55:12 46° NNE 03:58:23 10° ESE visible
29 Jan - 05:29:02 10° W 05:31:30 19° SW 05:33:54 10° S visible
29 Jan - 20:32:41 10° S 20:34:55 17° SE 20:37:13 10° E night (unlit)
29 Jan - 22:07:59 10° WSW 22:11:11 50° NNW 22:14:25 10° NE night (unlit)
29 Jan - 23:46:20 10° NW 23:48:19 15° NNW 23:50:16 10° NNE night (unlit)
30 Jan - 01:24:24 10° NNW 01:25:53 12° N 01:27:24 10° NE night (unlit)
30 Jan - 03:00:18 10° NW 03:03:14 29° NNE 03:06:11 10° E night (unlit)
30 Jan - 04:36:43 10° WNW 04:39:47 36° SW 04:42:51 10° SSE visible
30 Jan - 21:16:03 10° SW 21:19:19 87° SSE 21:22:37 10° NE night (unlit)
30 Jan - 22:53:46 10° WNW 22:56:12 19° NNW 22:58:37 10° NNE night (unlit)
31 Jan - 00:32:26 10° NNW 00:33:43 12° N 00:35:00 10° NNE night (unlit)
31 Jan - 02:08:38 10° NNW 02:11:11 20° NNE 02:13:45 10° ENE night (unlit)
31 Jan - 03:44:42 10° WNW 03:48:00 73° SW 03:51:18 10° SE night (unlit)
31 Jan - 20:24:23 10° SSW 20:27:30 43° SE 20:30:39 10° ENE night (unlit)
31 Jan - 22:01:18 10° W 22:04:07 26° NNW 22:06:57 10° NE night (unlit)
31 Jan - 23:40:06 10° NNW 23:41:30 12° N 23:42:55 10° NNE night (unlit)
01 Feb - 01:16:59 10° NNW 01:19:04 16° NNE 01:21:11 10° NE night (unlit)
01 Feb - 02:52:52 10° NW 02:56:08 59° NE 02:59:23 10° ESE night (unlit)
01 Feb - 04:30:21 10° W 04:32:20 15° SW 04:34:15 10° SSW night (unlit)
01 Feb - 19:33:08 10° S 19:35:44 22° SE 19:38:24 10° E visible
01 Feb - 21:08:59 10° WSW 21:12:06 40° NNW 21:15:14 10° NE night (unlit)
01 Feb - 22:47:31 10° NW 22:49:18 14° N 22:51:04 10° NNE night (unlit)
02 Feb - 00:25:15 10° NNW 00:26:53 13° N 00:28:33 10° NE night (unlit)
02 Feb - 02:01:05 10° NW 02:04:09 34° NNE 02:07:13 10° E night (unlit)
02 Feb - 03:37:43 10° WNW 03:40:36 28° SW 03:43:28 10° SSE night (unlit)
02 Feb - 18:42:48 10° SSE 18:44:00 12° SE 18:45:20 10° ESE visible
02 Feb - 20:16:52 10° WSW 20:20:09 72° NW 20:23:25 10° NE visible
02 Feb - 21:54:52 10° WNW 21:57:07 17° NNW 21:59:21 10° NNE night (unlit)
02 Feb - 23:33:21 10° NNW 23:34:39 12° N 23:35:59 10° NNE night (unlit)
03 Feb - 01:09:22 10° NNW 01:12:04 23° NNE 01:14:48 10° ENE night (unlit)
03 Feb - 02:45:33 10° WNW 02:48:47 55° SW 02:52:01 10° SE night (unlit)
03 Feb - 19:25:01 10° SW 19:28:14 58° SE 19:31:28 10° ENE visible
03 Feb - 21:02:17 10° WNW 21:04:57 22° NNW 21:07:38 10° NNE night (unlit)
03 Feb - 22:41:06 10° NNW 22:42:23 12° N 22:43:41 10° NNE night (unlit)
04 Feb - 00:17:39 10° NNW 00:19:55 17° NNE 00:22:13 10° ENE night (unlit)
04 Feb - 01:53:35 10° NW 01:56:53 76° NE 02:00:11 10° ESE night (unlit)
04 Feb - 03:31:48 10° WSW 03:33:01 11° SW 03:34:06 10° SSW night (unlit)
04 Feb - 18:33:32 10° SSW 18:36:23 29° SE 18:39:17 10° ENE visible
04 Feb - 20:09:50 10° W 20:12:51 33° NNW 20:15:52 10° NE visible
04 Feb - 21:48:31 10° NW 21:50:07 13° N 21:51:43 10° NNE night (unlit)
04 Feb - 23:25:54 10° NNW 23:27:42 14° NNE 23:29:31 10° NE night (unlit)
05 Feb - 01:01:43 10° NW 01:04:52 41° NNE 01:08:02 10° ESE night (unlit)
05 Feb - 02:38:36 10° W 02:41:14 22° SW 02:43:48 10° S night (unlit)
05 Feb - 17:42:38 10° SSE 17:44:34 15° SE 17:46:37 10° E daylight
05 Feb - 19:17:35 10° WSW 19:20:48 56° NNW 19:24:02 10° NE visible
05 Feb - 20:55:48 10° NW 20:57:52 15° NNW 20:59:54 10° NNE night (unlit)
05 Feb - 22:34:01 10° NNW 22:35:25 12° N 22:36:50 10° NNE night (unlit)
